Flag for Syria Weather past 2 weeks in Aleppo, Syria

Now
70 °F

Overcast.


Feels Like: 74 °F
Forecast: 59 / 82 °F
Wind: 7 mph from Northwest

Location: Iskenderun

Current Time: May 30, 2015 at 10:27:40 AM

Latest Report: May 30, 2015 at 9:00 AM


Visibility: 9 mi

Pressure: 29.87 "Hg

Humidity: 70%

Dew point: 60 °F

Location of AleppoLocation

Historic Weather in Aleppo — Graph

°F

Aleppo temperature yesterday

Maximum temperature yesterday: 77 °F (at 2:00 PM)
Minimum temperature yesterday: 71 °F (at 6:00 AM)
Average temperature yesterday: 74 °F

Past Weeks' High & Low Weather Summary

 TemperatureHumidityPressure
High103 °F (May 19, 3:00 PM)89% (May 23, 4:00 AM)30.21 "Hg (May 23, 4:00 AM)
Low66 °F (May 30, 5:00 AM)10% (May 19, 1:00 PM)29.62 "Hg (May 27, 9:00 PM)
Average76 °F63%29.89 "Hg
* Reported May 15 9:00 AM — May 30 9:00 AM, Aleppo, Weather by CustomWeather, © 2015

Note: Actual official high and low records may vary slightly from our data, if they occured in-between our weather recording intervals... More about our weather records

Advertising

Aleppo weather history for previous 24 hours

 ConditionsComfort  
Time TempWeatherWind HumidityBarometerVisibility
9:00 AM
Sat, May 30
70 °FOvercast.7 mph70%29.87 "Hg9 mi
8:00 AM71 °FThunderstorms. Partly sunny.1 mph71%29.85 "Hg9 mi
7:00 AM68 °FThunderstorms. Partly sunny.1 mph76%29.84 "Hg9 mi
5:00 AM66 °FSprinkles. Overcast.5 mph83%29.82 "Hg6 mi
4:00 AM67 °FSprinkles. Passing clouds.2 mph79%29.82 "Hg6 mi
3:00 AM69 °FPassing clouds.5 mph72%29.82 "Hg9 mi
2:00 AM70 °FPassing clouds.6 mph70%29.81 "Hg12 mi
1:00 AM71 °FPassing clouds.12 mph73%29.80 "Hg12 mi
11:00 PM
Fri, May 29
72 °FPassing clouds.6 mph63%29.80 "Hg12 mi
10:00 PM73 °FPassing clouds.1 mph63%29.80 "Hg12 mi
9:00 PM73 °FPassing clouds.1 mph57%29.78 "Hg12 mi
8:00 PM73 °FPassing clouds.6 mph59%29.78 "Hg9 mi
7:00 PM74 °FPartly sunny.14 mph63%29.78 "Hg9 mi
6:00 PM74 °FScattered clouds.14 mph63%29.76 "Hg9 mi
5:00 PM74 °FScattered clouds.18 mph64%29.77 "Hg9 mi
4:00 PM75 °FScattered clouds.22 mph59%29.76 "Hg9 mi
3:00 PM77 °FScattered clouds.21 mph61%29.76 "Hg9 mi
2:00 PM77 °FScattered clouds.21 mph62%29.75 "Hg9 mi
1:00 PM75 °FScattered clouds.16 mph61%29.75 "Hg12 mi
12:00 PM74 °FScattered clouds.14 mph68%29.75 "Hg9 mi
11:00 AM75 °FScattered clouds.14 mph65%29.75 "Hg9 mi
10:00 AM75 °FScattered clouds.13 mph62%29.75 "Hg9 mi
Weather by CustomWeather, © 2015

See weather overviewHow to use our weather pages